Home > Weather > Santa Clarita > Past weeks

Flag for USA Past Weather in Santa Clarita, California, USA — Yesterday and Last 2 Weeks

Now
74 °F

Clear.


Feels Like: 77 °F
Forecast: 67 / 98 °F
Wind: No wind

Location: Van Nuys Airport

Current Time: Jul 26, 2016 at 5:15:51 AM

Latest Report: Jul 26, 2016 at 4:51 AM


Visibility: 10 mi

Pressure: 29.87 "Hg

Humidity: 52%

Dew Point: 55 °F

Location of Santa ClaritaLocation

Past Weather in Santa Clarita — Graph

°F

Santa Clarita Temperature Yesterday

Maximum temperature yesterday: 99 °F (at 3:51 PM)
Minimum temperature yesterday: 70 °F (at 4:51 AM)
Average temperature yesterday: 83 °F

High & Low Weather Summary for the Past Weeks

 TemperatureHumidityPressure
High107 °F (Jul 22, 3:51 PM)97% (Jul 14, 6:51 AM)30.02 "Hg (Jul 14, 6:51 AM)
Low61 °F (Jul 17, 4:51 AM)6% (Jul 22, 10:51 PM)29.75 "Hg (Jul 23, 2:51 PM)
Average79 °F49%29.89 "Hg
* Reported Jul 11 3:51 AM — Jul 26 3:51 AM, Santa Clarita, Weather by CustomWeather, © 2016

Note: Actual official high and low records may vary slightly from our data, if they occured in-between our weather recording intervals... More about our weather records

Advertising

Santa Clarita Weather History for the Previous 24 Hours

Scroll right to see more
 ConditionsComfort  
Time TempWeatherWind HumidityBarometerVisibility
3:51 AM
Tue, Jul 26
75 °FClear.3 mph50%29.88 "Hg10 mi
2:51 AM75 °FClear.5 mph50%29.88 "Hg10 mi
1:51 AM76 °FClear.3 mph47%29.88 "Hg10 mi
12:51 AM76 °FClear.6 mph54%29.88 "Hg10 mi
11:51 PM
Mon, Jul 25
77 °FClear.5 mph47%29.89 "Hg10 mi
10:51 PM77 °FClear.3 mph44%29.88 "Hg10 mi
9:51 PM78 °FClear.3 mph43%29.88 "Hg10 mi
8:51 PM79 °FSunny.7 mph38%29.87 "Hg10 mi
7:51 PM84 °FSunny.9 mph30%29.84 "Hg10 mi
6:51 PM89 °FSunny.10 mph22%29.82 "Hg10 mi
5:51 PM96 °FSunny.12 mph17%29.80 "Hg10 mi
4:51 PM99 °FSunny.14 mph15%29.81 "Hg10 mi
3:51 PM99 °FSunny.3 mph11%29.83 "Hg10 mi
2:51 PM98 °FSunny.6 mph11%29.86 "Hg10 mi
1:51 PM96 °FSunny.6 mph11%29.89 "Hg10 mi
12:51 PM95 °FSunny.8 mph15%29.92 "Hg10 mi
11:51 AM92 °FSunny.3 mph18%29.93 "Hg10 mi
10:51 AM89 °FSunny.6 mph20%29.95 "Hg10 mi
9:51 AM86 °FSunny.6 mph28%29.96 "Hg10 mi
8:51 AM81 °FSunny.7 mph41%29.96 "Hg10 mi
7:51 AM74 °FSunny.No wind76%29.94 "Hg8 mi
6:51 AM71 °FClear.No wind84%29.92 "Hg8 mi
5:51 AM70 °FClear.No wind90%29.90 "Hg9 mi
Weather by CustomWeather, © 2016

See weather overviewHow to use our weather pages